Wind_Speed
45 48 50 50 51 52 52 51 51 47 46 47 46 54 50 55 58 64 71 76 83 85 90 93 96 98 99 98 95 91 88 87
43 43 43 44 45 46 47 46 44 43 44 50 57 58 66 65 67 71 77 81 84 89 93 95 93 91 90 88 91 89 90 89
40 39 39 39 40 39 37 36 38 40 42 48 52 56 59 66 72 77 81 84 86 84 83 85 86 88 87 88 89 89 89 86
34 33 34 35 35 36 36 37 39 41 43 46 50 55 59 63 66 69 73 76 79 81 83 84 85 85 87 87 87 86 89 93
28 27 26 26 27 29 33 36 39 43 47 51 54 58 61 66 69 72 75 77 79 81 82 83 84 84 82 83 88 93 95 100
17 18 22 25 30 34 37 41 44 47 51 55 59 62 66 68 71 73 74 75 75 75 76 76 78 81 85 90 94 97 104 109
19 24 28 31 34 37 40 44 48 52 55 58 61 64 65 66 67 68 67 67 67 69 73 78 83 87 91 95 100 106 110 115
25 27 30 33 36 39 41 44 46 49 51 54 57 59 62 64 64 65 66 68 71 76 81 84 86 90 96 101 106 110 112 113
24 28 31 35 38 40 42 45 47 50 52 54 56 59 61 63 64 66 68 71 75 80 84 88 92 99 103 107 109 109 110 110
27 29 33 37 39 41 44 46 49 51 53 56 59 61 62 63 64 67 71 76 81 86 89 94 99 104 108 109 109 108 111 110
27 32 34 39 42 45 48 51 54 55 58 60 59 59 60 62 65 70 76 82 87 91 96 100 105 107 108 108 108 111 109 105
36 41 44 48 50 54 56 58 60 61 63 66 66 64 64 67 72 79 85 89 94 97 101 104 104 106 108 108 110 109 105 101
39 44 48 52 54 59 63 65 66 65 66 68 68 67 69 74 79 86 92 96 100 103 103 101 104 106 108 108 108 106 100 93
45 48 52 56 60 64 67 70 70 70 70 71 69 70 75 80 87 93 98 101 106 108 104 103 105 107 109 110 106 99 91 86
50 52 56 61 64 68 71 74 72 73 74 75 74 77 81 87 93 99 103 106 109 109 105 105 109 110 108 106 99 91 85 81
54 57 61 64 68 72 76 77 76 77 79 79 80 83 88 93 99 104 107 111 110 107 106 108 110 110 106 100 91 84 80 76
58 63 66 70 74 78 79 79 81 83 84 83 85 89 94 100 105 109 112 110 108 107 108 108 110 106 103 95 86 81 76 72
65 70 74 76 79 81 82 84 85 84 84 86 90 95 100 106 110 113 114 109 109 108 110 110 107 104 98 88 82 77 73 71
71 74 77 80 83 85 86 87 84 86 88 92 96 101 106 110 113 113 109 109 108 109 109 109 104 101 91 84 79 74 72 70
Wind_Direction
262 264 266 269 271 273 275 276 274 265 266 259 266 271 271 266 265 269 274 273 276 279 279 280 283 285 286 288 290 291 291 291
268 269 272 274 273 269 270 270 271 272 270 256 259 268 260 265 267 269 273 275 279 279 282 284 286 287 290 290 291 292 292 292
271 272 271 273 274 272 271 270 270 270 267 268 271 273 272 272 273 276 279 278 279 284 286 288 289 290 291 292 292 292 293 293
271 270 270 272 275 279 281 283 283 283 283 282 280 280 281 280 281 282 284 286 288 289 290 291 291 292 292 292 293 294 294 295
270 278 284 287 291 295 295 295 295 294 292 291 291 290 288 287 287 287 288 289 290 291 291 292 292 292 292 294 296 297 296 296
281 291 296 300 302 301 300 296 293 291 290 288 286 285 284 284 286 287 288 289 290 290 291 292 294 297 298 299 299 298 295 294
306 307 305 302 301 299 298 295 293 291 289 288 287 288 288 288 288 288 289 291 294 297 299 300 300 300 300 299 297 295 294 293
305 304 304 302 299 297 295 296 297 297 298 299 297 295 294 294 296 298 300 301 302 302 303 303 302 301 300 298 297 297 296 296
305 304 301 300 301 302 303 304 308 311 313 312 308 306 303 301 301 301 303 305 305 305 305 304 303 304 303 301 300 301 301 301
305 309 312 315 314 313 313 313 314 316 317 313 310 307 305 305 305 306 308 308 307 306 306 307 307 306 305 305 304 304 304 306
311 316 319 320 322 321 317 313 312 313 317 318 313 308 306 306 307 307 307 308 309 310 311 311 310 309 308 307 307 309 311 310
311 315 315 318 320 321 321 320 318 316 316 316 315 309 307 309 309 309 312 313 313 314 313 313 311 310 309 311 312 313 313 310
311 313 314 317 317 317 318 318 317 315 314 314 313 310 309 310 312 314 315 316 318 316 315 313 313 313 313 314 316 316 313 308
311 315 315 316 316 316 315 313 314 314 314 314 313 312 310 312 315 316 317 318 318 316 314 314 316 316 317 318 317 315 310 308
312 314 314 315 316 316 313 313 313 313 314 314 314 313 314 316 317 317 318 318 317 316 315 314 317 317 317 317 317 314 312 310
310 312 313 314 315 315 314 314 313 314 316 315 314 314 316 318 318 319 319 317 317 316 316 316 316 317 318 318 316 314 313 312
307 309 310 312 314 315 315 314 315 317 316 315 315 316 317 318 319 319 318 318 317 316 316 318 319 319 320 319 318 317 315 314
304 307 309 311 313 314 315 315 317 316 315 314 316 316 317 318 318 319 319 318 318 317 317 319 320 320 319 319 319 317 316 316
303 306 308 311 312 313 314 315 315 314 314 315 316 317 318 319 319 319 317 318 318 318 319 318 320 319 320 321 320 319 318 317
Height
10673 10672 10672 10671 10670 10667 10664 10663 10659 10658 10654 10648 10645 10641 10635 10628 10622 10618 10612 10604 10597 10590 10584 10578 10571 10565 10558 10550 10545 10538 10532 10529
10663 10662 10662 10661 10659 10657 10654 10650 10647 10643 10640 10637 10632 10626 10619 10614 10610 10604 10597 10589 10583 10577 10569 10561 10553 10546 10538 10531 10524 10517 10509 10505
10653 10652 10649 10648 10645 10643 10640 10637 10633 10630 10627 10624 10618 10613 10608 10604 10598 10591 10584 10577 10569 10562 10552 10545 10536 10526 10521 10512 10504 10496 10486 10483
10643 10641 10640 10638 10635 10632 10630 10627 10624 10621 10618 10614 10608 10602 10596 10590 10583 10576 10568 10561 10553 10545 10535 10526 10518 10509 10501 10494 10484 10476 10464 10456
10635 10634 10633 10630 10628 10626 10623 10619 10615 10611 10606 10600 10594 10588 10582 10575 10568 10561 10553 10544 10536 10527 10519 10510 10501 10491 10482 10473 10464 10452 10442 10430
10630 10628 10626 10624 10621 10618 10615 10611 10607 10602 10596 10590 10584 10576 10569 10561 10553 10545 10536 10528 10519 10511 10503 10493 10483 10473 10463 10452 10440 10431 10416 10404
10623 10621 10619 10617 10614 10610 10606 10601 10596 10591 10585 10578 10570 10562 10553 10545 10537 10528 10519 10511 10503 10494 10484 10474 10464 10452 10442 10429 10415 10400 10385 10368
10617 10615 10612 10610 10606 10603 10598 10592 10587 10580 10573 10565 10557 10548 10538 10530 10522 10513 10504 10495 10487 10477 10466 10455 10443 10431 10416 10401 10384 10367 10351 10335
10612 10610 10607 10603 10598 10593 10587 10580 10573 10566 10559 10551 10542 10533 10524 10516 10507 10498 10490 10481 10472 10461 10448 10434 10420 10405 10387 10369 10352 10334 10317 10300
10607 10603 10598 10593 10588 10583 10576 10568 10561 10554 10546 10537 10527 10518 10509 10501 10492 10484 10475 10466 10455 10443 10427 10411 10394 10377 10358 10338 10319 10301 10283 10263
10599 10594 10589 10584 10578 10572 10565 10557 10549 10541 10532 10524 10515 10506 10497 10488 10480 10470 10459 10448 10435 10419 10401 10384 10365 10347 10328 10309 10289 10270 10251 10230
10589 10584 10579 10572 10566 10559 10551 10544 10535 10527 10519 10511 10501 10492 10482 10474 10463 10452 10439 10425 10409 10392 10374 10356 10337 10319 10300 10281 10260 10239 10220 10202
10580 10575 10569 10562 10555 10547 10538 10531 10523 10515 10506 10496 10487 10476 10466 10456 10444 10430 10416 10400 10382 10365 10348 10330 10311 10290 10270 10251 10231 10213 10194 10176
10570 10564 10557 10550 10543 10535 10527 10519 10510 10500 10491 10481 10471 10460 10449 10437 10423 10408 10392 10375 10356 10338 10321 10303 10284 10263 10241 10222 10206 10189 10170 10153
10560 10553 10546 10538 10530 10522 10513 10504 10494 10484 10474 10463 10452 10441 10428 10415 10400 10385 10368 10350 10333 10314 10295 10277 10257 10236 10217 10200 10182 10163 10146 10131
10548 10541 10533 10525 10517 10508 10497 10488 10477 10467 10456 10444 10432 10419 10406 10393 10378 10361 10344 10326 10307 10287 10269 10251 10235 10215 10195 10177 10161 10142 10125 10110
10535 10527 10519 10511 10501 10492 10481 10470 10459 10448 10436 10424 10412 10399 10386 10371 10354 10338 10320 10300 10281 10262 10244 10227 10208 10190 10172 10153 10136 10120 10105 10091
10521 10513 10504 10495 10484 10474 10463 10452 10441 10429 10417 10406 10394 10381 10365 10349 10332 10313 10293 10275 10257 10239 10220 10201 10185 10167 10152 10134 10116 10101 10087 10074
10507 10498 10488 10478 10467 10456 10445 10434 10423 10412 10400 10388 10375 10360 10343 10326 10308 10289 10272 10254 10234 10215 10197 10180 10163 10146 10131 10114 10097 10082 10069 10057